EW1669 Weather Reports


time (UTC)temp
F
wind
direction
speed
knots
gust
knots
rain 1hr
in
rain 24hr
in
rain mn
in
humidity
%
barometer
mb
20260904180953 95 235 0.0 0.9 0.00 0.00 0.00 27 1018.3
20260904180338 95 189 0.0 0.9 0.00 0.00 0.00 25 1018.3
20260904180256 95 143 0.0 1.7 0.00 0.00 0.00 26 1018.7
20260904175159 95 239 0.9 3.5 0.00 0.00 0.00 27 1018.3
20260904174540 95 175 0.0 2.6 0.00 0.00 0.00 27 1018.7
20260904173900 95 180 0.9 2.6 0.00 0.00 0.00 27 1018.7
20260904173259 94 175 0.0 0.0 0.00 0.00 0.00 26 1018.7
20260904172624 92 311 0.0 0.0 0.00 0.00 0.00 28 1019.0
20260904171942 91 326 0.0 0.0 0.00 0.00 0.00 30 1018.7
20260904171310 91 316 0.0 0.0 0.00 0.00 0.00 30 1019.0
20260904170808 92 185 0.0 0.0 0.00 0.00 0.00 29 1018.7
20260904170158 93 226 0.0 0.0 0.00 0.00 0.00 29 1019.0
20260904165510 94 187 0.0 2.6 0.00 0.00 0.00 28 1018.7
20260904165001 94 207 0.0 2.6 0.00 0.00 0.00 29 1019.0
20260904164412 93 172 0.9 2.6 0.00 0.00 0.00 28 1018.7
20260904163859 92 183 0.0 6.1 0.00 0.00 0.00 29 1019.0
20260904163301 90 196 3.5 6.1 0.00 0.00 0.00 32 1018.7
20260904162845 90 218 2.6 7.0 0.00 0.00 0.00 31 1019.0
20260904162016 91 188 3.5 5.2 0.00 0.00 0.00 31 1019.0
20260904161409 91 203 0.0 0.0 0.00 0.00 0.00 31 1019.0
20260904160758 90 178 0.0 0.0 0.00 0.00 0.00 32 1019.0
20260904160133 89 187 0.0 0.9 0.00 0.00 0.00 33 1018.7
20260904155746 88 187 0.0 5.2 0.00 0.00 0.00 35 1018.7
20260904154838 88 174 0.0 6.1 0.00 0.00 0.00 35 1018.7
20260904154217 86 198 3.5 6.1 0.00 0.00 0.00 36 1018.3
20260904153616 87 179 5.2 6.1 0.00 0.00 0.00 35 1018.7
20260904153019 87 179 2.6 3.5 0.00 0.00 0.00 35 1018.3
20260904152734 85 190 1.7 4.3 0.00 0.00 0.00 37 1018.7
20260904151847 85 199 1.7 4.3 0.00 0.00 0.00 37 1018.7
20260904151243 85 192 1.7 3.5 0.00 0.00 0.00 38 1018.3
20260904150635 84 186 0.0 0.0 0.00 0.00 0.00 40 1018.3
20260904145955 84 192 0.0 0.0 0.00 0.00 0.00 40 1018.7
20260904145410 83 169 0.0 0.0 0.00 0.00 0.00 41 1018.3
20260904144746 82 196 0.0 0.0 0.00 0.00 0.00 42 1018.7
20260904144205 82 194 0.0 1.7 0.00 0.00 0.00 44 1018.3
20260904143518 81 141 0.0 2.6 0.00 0.00 0.00 46 1018.7
20260904142912 80 146 0.0 2.6 0.00 0.00 0.00 47 1018.7
20260904142542 79 138 0.9 2.6 0.00 0.00 0.00 47 1019.0
20260904141600 79 137 0.0 0.0 0.00 0.00 0.00 48 1018.3
20260904141016 79 150 0.0 0.0 0.00 0.00 0.00 47 1018.3
20260904140505 78 172 0.0 0.0 0.00 0.00 0.00 49 1018.3
20260904135921 78 177 0.0 0.0 0.00 0.00 0.00 49 1018.3
20260904135356 76 178 0.0 0.0 0.00 0.00 0.00 52 1018.3
20260904134748 74 178 0.0 0.0 0.00 0.00 0.00 56 1018.3
20260904134105 73 178 0.0 0.0 0.00 0.00 0.00 57 1018.0
20260904133940 73 178 0.0 0.0 0.00 0.00 0.00 57 1018.3
20260904132912 74 178 0.0 0.0 0.00 0.00 0.00 56 1018.0
20260904132538 73 178 0.0 0.0 0.00 0.00 0.00 58 1018.0
20260904131804 72 178 0.0 0.0 0.00 0.00 0.00 59 1018.0
20260904131210 71 178 0.0 0.0 0.00 0.00 0.00 60 1018.0
20260904130430 71 178 0.0 0.0 0.00 0.00 0.00 60 1018.0
20260904125800 69 178 0.0 0.0 0.00 0.00 0.00 62 1017.7
20260904125116 69 178 0.0 0.0 0.00 0.00 0.00 64 1017.7
20260904124453 69 179 0.0 0.0 0.00 0.00 0.00 64 1017.3
20260904123558 69 179 0.0 0.0 0.00 0.00 0.00 64 1017.3
20260904123008 69 179 0.0 0.0 0.00 0.00 0.00 64 1017.3
20260904122410 69 179 0.0 0.0 0.00 0.00 0.00 63 1017.3
20260904121625 69 179 0.0 0.0 0.00 0.00 0.00 62 1017.3
20260904121016 69 179 0.0 0.0 0.00 0.00 0.00 62 1017.0
20260904120410 70 179 0.0 0.0 0.00 0.00 0.00 62 1017.0
20260904115816 70 179 0.0 0.0 0.00 0.00 0.00 61 1017.3
20260904115258 71 179 0.0 0.0 0.00 0.00 0.00 60 1017.0
20260904114711 70 179 0.0 0.0 0.00 0.00 0.00 60 1017.0
20260904114044 71 179 0.0 0.0 0.00 0.00 0.00 59 1017.3
20260904113426 71 179 0.0 0.0 0.00 0.00 0.00 58 1017.3
20260904113035 71 179 0.0 0.0 0.00 0.00 0.00 59 1017.3
20260904112308 71 179 0.0 0.0 0.00 0.00 0.00 59 1017.3
20260904111715 72 179 0.0 0.0 0.00 0.00 0.00 58 1017.0
20260904111029 72 179 0.0 0.0 0.00 0.00 0.00 57 1017.3
20260904110358 72 179 0.0 0.0 0.00 0.00 0.00 57 1017.0
20260904105750 72 179 0.0 0.0 0.00 0.00 0.00 56 1017.3
20260904105216 72 179 0.0 0.0 0.00 0.00 0.00 56 1017.3
20260904104825 72 179 0.0 0.0 0.00 0.00 0.00 56 1017.3
20260904104017 73 179 0.0 0.0 0.00 0.00 0.00 55 1017.3
20260904103348 73 179 0.0 0.0 0.00 0.00 0.00 54 1017.3
20260904102617 73 179 0.0 0.0 0.00 0.00 0.00 53 1017.0
20260904102010 74 179 0.0 0.0 0.00 0.00 0.00 53 1017.0
20260904101358 74 178 0.0 0.0 0.00 0.00 0.00 53 1017.0
20260904101155 74 182 0.0 0.0 0.00 0.00 0.00 52 1017.3
20260904100207 74 182 0.0 0.0 0.00 0.00 0.00 52 1017.0
20260904095639 74 180 0.0 0.0 0.00 0.00 0.00 52 1017.0
20260904094959 75 179 0.0 0.9 0.00 0.00 0.00 50 1017.0
20260904094320 74 204 0.0 0.0 0.00 0.00 0.00 51 1017.3
20260904093708 74 201 0.0 0.0 0.00 0.00 0.00 51 1017.3
20260904093108 74 202 0.0 0.0 0.00 0.00 0.00 51 1017.0
20260904092500 74 192 0.0 0.0 0.00 0.00 0.00 51 1017.3
20260904091905 74 178 0.0 0.0 0.00 0.00 0.00 52 1017.3
20260904091252 74 178 0.0 0.0 0.00 0.00 0.00 52 1017.3
20260904090647 74 149 0.0 0.0 0.00 0.00 0.00 52 1017.3
20260904090045 75 152 0.0 0.0 0.00 0.00 0.00 51 1017.3
20260904085650 74 173 0.0 0.0 0.00 0.00 0.00 52 1017.3
20260904084900 74 174 0.0 0.0 0.00 0.00 0.00 52 1017.3
20260904084526 74 174 0.0 0.0 0.00 0.00 0.00 53 1017.3
20260904083859 74 174 0.0 2.6 0.00 0.00 0.00 52 1017.7
20260904083020 75 129 0.0 0.0 0.00 0.00 0.00 52 1017.3
20260904082402 75 126 0.0 0.0 0.00 0.00 0.00 52 1017.0
20260904081754 75 126 0.0 0.0 0.00 0.00 0.00 52 1017.3
20260904081134 75 126 0.0 0.0 0.00 0.00 0.00 51 1017.3
20260904080534 75 117 0.0 0.0 0.00 0.00 0.00 51 1017.3
20260904075913 75 130 0.0 0.0 0.00 0.00 0.00 51 1017.7
20260904075306 76 126 0.0 2.6 0.00 0.00 0.00 51 1017.3
20260904074657 76 115 0.0 1.7 0.00 0.00 0.00 50 1017.7
20260904074054 76 129 0.9 2.6 0.00 0.00 0.00 50 1017.7
20260904073450 76 117 0.9 2.6 0.00 0.00 0.00 50 1017.3
20260904072857 76 120 0.0 0.0 0.00 0.00 0.00 50 1017.3
20260904072240 77 111 0.0 3.5 0.00 0.00 0.00 49 1017.3
20260904071657 77 95 0.0 3.5 0.00 0.00 0.00 48 1017.7
20260904071053 77 105 0.9 2.6 0.00 0.00 0.00 48 1018.0
20260904070458 78 121 0.0 0.9 0.00 0.00 0.00 47 1018.0
20260904070122 78 105 0.0 3.5 0.00 0.00 0.00 47 1017.7
20260904065249 78 107 0.0 3.5 0.00 0.00 0.00 47 1018.0
20260904064650 78 108 0.0 0.0 0.00 0.00 0.00 46 1017.7
20260904064047 78 95 0.0 0.9 0.00 0.00 0.00 46 1017.7
20260904063442 78 108 0.0 1.7 0.00 0.00 0.00 45 1017.7
20260904062905 78 113 0.0 1.7 0.00 0.00 0.00 45 1017.7
20260904062150 79 118 0.0 0.9 0.00 0.00 0.00 44 1017.7
20260904061757 79 117 0.0 0.9 0.00 0.00 0.00 44 1017.7
20260904061219 79 124 0.0 1.7 0.00 0.00 0.00 44 1017.7
20260904060619 79 121 0.0 1.7 0.00 0.00 0.00 43 1017.3
20260904055740 80 124 0.9 5.2 0.00 0.00 0.00 42 1017.3
20260904054957 80 103 0.0 3.5 0.00 0.00 0.00 41 1017.7
20260904054348 80 100 0.9 5.2 0.00 0.00 0.00 41 1017.7
20260904053758 80 117 2.6 5.2 0.00 0.00 0.00 40 1017.3
20260904053147 81 109 0.0 3.5 0.00 0.00 0.00 39 1017.3
20260904052816 81 102 0.0 0.9 0.00 0.00 0.00 39 1017.3
20260904052012 81 101 0.0 0.0 0.00 0.00 0.00 39 1017.3
20260904051354 81 110 0.0 0.0 0.00 0.00 0.00 39 1017.3
20260904050745 80 110 0.0 0.0 0.00 0.00 0.00 39 1017.3
20260904050205 80 110 0.0 0.0 0.00 0.00 0.00 40 1017.3
20260904045552 81 109 0.0 0.0 0.00 0.00 0.00 39 1017.3
20260904045013 81 111 0.0 0.0 0.00 0.00 0.00 39 1017.3
20260904044458 81 111 0.0 0.0 0.00 0.00 0.00 38 1017.3
20260904043859 81 114 0.0 0.0 0.00 0.00 0.00 39 1017.3
20260904043253 81 92 0.0 0.0 0.00 0.00 0.00 38 1017.7
20260904042711 81 104 0.0 0.0 0.00 0.00 0.00 39 1017.3
20260904042058 81 97 0.0 0.9 0.00 0.00 0.00 39 1017.3
20260904041503 81 73 0.0 0.9 0.00 0.00 0.00 39 1017.7
20260904040924 82 166 0.0 0.0 0.00 0.00 0.00 39 1017.3
20260904040347 81 168 0.0 0.0 0.00 0.00 0.00 39 1017.7
20260904035835 81 168 0.0 0.0 0.00 0.00 0.00 39 1017.7
20260904035246 81 168 0.0 0.0 0.00 0.00 0.00 40 1017.7
20260904034705 81 168 0.0 0.0 0.00 0.00 0.00 40 1017.3
20260904034139 81 168 0.0 0.0 0.00 0.00 0.00 40 1017.7
20260904033602 81 168 0.0 0.0 0.00 0.00 0.00 40 1017.3
20260904033021 81 168 0.0 0.0 0.00 0.00 0.00 40 1017.7
20260904032456 81 168 0.0 0.0 0.00 0.00 0.00 40 1017.3
20260904031858 81 199 0.0 0.0 0.00 0.00 0.00 40 1017.7
20260904031332 81 201 0.0 0.0 0.00 0.00 0.00 40 1017.3
20260904030941 81 199 0.0 0.9 0.00 0.00 0.00 40 1017.3
20260904030823 81 202 0.0 0.0 0.00 0.00 0.00 40 1017.3
20260904025649 81 181 0.0 3.5 0.00 0.00 0.00 40 1017.3
20260904025130 81 132 0.0 0.9 0.00 0.00 0.00 40 1017.0
20260904024554 81 144 0.0 0.9 0.00 0.00 0.00 40 1017.3
20260904024029 81 151 0.0 2.6 0.00 0.00 0.00 40 1017.0
20260904023512 82 136 0.0 1.7 0.00 0.00 0.00 40 1017.3
20260904023002 82 97 0.0 0.9 0.00 0.00 0.00 40 1017.0
20260904022453 82 131 0.0 5.2 0.00 0.00 0.00 40 1017.0
20260904022202 82 126 0.0 7.8 0.00 0.00 0.00 39 1017.0
20260904021354 83 153 0.9 7.8 0.00 0.00 0.00 39 1016.7
20260904021101 83 148 3.5 6.1 0.00 0.00 0.00 38 1016.7
20260904020741 83 134 0.0 5.2 0.00 0.00 0.00 37 1016.7
20260904020005 84 202 0.0 5.2 0.00 0.00 0.00 36 1016.7
20260904015149 85 128 1.7 9.6 0.00 0.00 0.00 35 1016.7
20260904014903 86 136 1.7 9.6 0.00 0.00 0.00 34 1016.0
20260904014336 87 126 0.9 7.0 0.00 0.00 0.00 33 1016.3
20260904013557 89 114 3.5 5.2 0.00 0.00 0.00 28 1016.3
20260904013014 90 160 0.0 7.8 0.00 0.00 0.00 28 1015.6
20260904012358 90 152 2.6 7.0 0.00 0.00 0.00 29 1015.6
20260904011843 90 154 0.9 6.1 0.00 0.00 0.00 28 1015.6
20260904011249 90 151 2.6 6.1 0.00 0.00 0.00 27 1015.6
20260904010933 90 120 0.0 6.1 0.00 0.00 0.00 27 1015.3
20260904010157 90 133 0.0 0.9 0.00 0.00 0.00 27 1015.6
20260904005608 91 131 0.0 1.7 0.00 0.00 0.00 27 1015.0
20260904005103 91 139 0.0 1.7 0.00 0.00 0.00 27 1015.3
20260904004537 91 144 0.9 5.2 0.00 0.00 0.00 27 1015.0
20260904004006 91 145 0.0 6.1 0.00 0.00 0.00 27 1015.0
20260904003506 91 159 0.0 5.2 0.00 0.00 0.00 27 1015.3
20260904003134 91 134 0.0 5.2 0.00 0.00 0.00 27 1015.3
20260904002357 92 135 1.7 6.1 0.00 0.00 0.00 28 1015.3
20260904001756 92 173 0.0 6.1 0.00 0.00 0.00 27 1015.6
20260904001157 93 130 1.7 6.1 0.00 0.00 0.00 26 1015.3
20260904001104 92 103 0.0 8.7 0.00 0.00 0.00 27 1015.3
20260904000326 92 120 7.0 8.7 0.00 0.00 0.00 26 1015.3
20260903235450 93 111 0.9 7.8 0.00 0.00 0.00 26 1015.3
20260903235148 92 163 0.9 8.7 0.00 0.00 0.00 26 1015.3
20260903234359 93 145 3.5 8.7 0.00 0.00 0.00 26 1015.0
20260903233833 93 154 0.9 7.8 0.00 0.00 0.00 26 1015.3
20260903233330 94 132 0.0 7.8 0.00 0.00 0.00 25 1015.0
20260903232759 95 218 0.0 2.6 0.00 0.00 0.00 23 1015.0
20260903232438 95 152 0.0 2.6 0.00 0.00 0.00 23 1015.3
20260903231648 96 136 0.0 0.0 0.00 0.00 0.00 22 1015.3
20260903231056 96 131 0.0 0.0 0.00 0.00 0.00 23 1015.0
20260903230457 96 142 0.0 0.0 0.00 0.00 0.00 22 1015.0
20260903225940 95 159 0.0 0.0 0.00 0.00 0.00 23 1015.0
20260903225428 94 198 0.0 5.2 0.00 0.00 0.00 23 1015.0
20260903224911 94 182 0.0 5.2 0.00 0.00 0.00 23 1015.3
20260903224401 94 137 1.7 5.2 0.00 0.00 0.00 23 1015.0
20260903223843 95 123 0.0 1.7 0.00 0.00 0.00 23 1015.3
20260903223319 95 117 0.0 2.6 0.00 0.00 0.00 23 1015.0
20260903223252 95 120 0.9 2.6 0.00 0.00 0.00 23 1015.3
20260903222311 96 135 0.9 2.6 0.00 0.00 0.00 23 1015.3
20260903221745 97 125 0.0 0.0 0.00 0.00 0.00 21 1015.3
20260903221223 96 134 0.0 0.0 0.00 0.00 0.00 22 1015.3
20260903220642 96 192 0.0 0.0 0.00 0.00 0.00 22 1015.3
20260903220130 97 203 0.0 0.0 0.00 0.00 0.00 22 1015.6
20260903215608 97 179 0.0 0.0 0.00 0.00 0.00 22 1015.3
20260903215540 98 131 0.0 0.0 0.00 0.00 0.00 21 1015.6
20260903214816 99 175 0.0 2.6 0.00 0.00 0.00 20 1015.3
20260903213917 98 116 0.0 2.6 0.00 0.00 0.00 20 1015.6
20260903213354 97 78 0.0 8.7 0.00 0.00 0.00 22 1015.6
20260903212844 99 152 7.0 8.7 0.00 0.00 0.00 21 1015.6
20260903212342 99 162 4.3 6.1 0.00 0.00 0.00 21 1015.6
20260903211826 98 146 0.0 5.2 0.00 0.00 0.00 21 1015.6
20260903211310 98 347 0.0 5.2 0.00 0.00 0.00 21 1015.6
20260903210753 98 54 1.7 5.2 0.00 0.00 0.00 23 1016.0
20260903210248 99 141 0.0 1.7 0.00 0.00 0.00 20 1016.0
20260903205742 99 122 0.0 0.0 0.00 0.00 0.00 22 1016.0
20260903205231 98 182 0.0 1.7 0.00 0.00 0.00 21 1016.0
20260903204619 98 281 0.0 0.9 0.00 0.00 0.00 22 1016.3
20260903204023 97 190 0.0 0.0 0.00 0.00 0.00 22 1016.0
20260903203508 96 155 0.0 0.0 0.00 0.00 0.00 23 1016.0
20260903202948 96 151 0.0 0.9 0.00 0.00 0.00 22 1016.3
20260903202430 98 126 0.0 0.9 0.00 0.00 0.00 22 1016.3
20260903202126 98 125 0.0 2.6 0.00 0.00 0.00 24 1016.3
20260903201343 97 123 1.7 2.6 0.00 0.00 0.00 22 1016.7
20260903200819 96 194 0.0 0.9 0.00 0.00 0.00 23 1016.7
20260903200305 96 175 0.0 1.7 0.00 0.00 0.00 23 1016.7
20260903195740 95 204 0.0 1.7 0.00 0.00 0.00 23 1016.7
20260903195152 96 134 0.0 3.5 0.00 0.00 0.00 23 1016.7
20260903194906 97 121 0.0 6.1 0.00 0.00 0.00 22 1016.7
20260903194113 99 196 1.7 6.1 0.00 0.00 0.00 21 1016.7
20260903193812 97 134 0.0 6.1 0.00 0.00 0.00 23 1016.7
20260903193033 96 142 0.0 6.1 0.00 0.00 0.00 23 1016.7
20260903192529 95 117 1.7 3.5 0.00 0.00 0.00 24 1017.0
20260903192215 95 178 0.0 2.6 0.00 0.00 0.00 23 1017.3
20260903191402 96 270 0.0 0.0 0.00 0.00 0.00 23 1017.3
20260903190737 96 125 0.0 0.0 0.00 0.00 0.00 25 1017.0
20260903190208 100 186 0.0 0.9 0.00 0.00 0.00 21 1017.3
20260903190124 101 196 0.0 0.9 0.00 0.00 0.00 21 1017.7
20260903185309 100 183 0.0 0.9 0.00 0.00 0.00 21 1017.3
20260903184745 100 199 0.0 0.0 0.00 0.00 0.00 21 1018.0
20260903184150 98 181 0.0 0.0 0.00 0.00 0.00 22 1017.7
20260903184026 98 185 0.0 0.0 0.00 0.00 0.00 22 1017.3
20260903182857 98 279 0.0 0.0 0.00 0.00 0.00 23 1017.7
20260903182338 98 187 0.0 0.0 0.00 0.00 0.00 23 1018.0
20260903181815 99 198 0.0 0.0 0.00 0.00 0.00 23 1018.0